Location: Bacea
(45.9500°N, 22.6667°E)
Time: 00:05:24
(UTC+00:00)

Cosmos 1300 - Pass Details

Date: 29 May 2022
Orbit: 506 x 508 km, 82.5° (Epoch: 01 July)

Event Time Altitude Azimuth Distance (km) Brightness Sun altitude
Rises 00:04:48 0° 335° (NNW) 2,622 6.9 -18.9°
Reaches altitude 10° 00:07:25 10° 316° (NW) 1,730 5.6 -18.7°
Enters shadow 00:09:56 18° 275° (W) 1,303 4.5 -18.5°
